Location: Kermapucano
(48.0667°N, 3.3000°W)
Time: 20:18:01
(UTC+00:00)

ATLAS 5 CENTAUR R/B - Pass Details

Date: 29 November 2020
Orbit: 520 x 1138 km, 63.4° (Epoch: 22 January)

Event Time Altitude Azimuth Distance (km) Brightness Sun altitude
Rises 06:25:24 0° 191° (S) 2,648 4.9 -12.1°
Reaches altitude 10° 06:27:39 10° 180° (S) 1,793 4.2 -11.7°
Maximum altitude 06:31:09 30° 118° (ESE) 1,024 3.6 -11.2°
Drops below altitude 10° 06:35:02 10° 57° (ENE) 1,990 4.7 -10.5°
Sets 06:37:40 0° 47° (NE) 2,997 5.4 -10.1°
